Time,TemperatureF,DewpointF,PressureIn,WindDirection,WindDirectionDegrees,WindSpeedMPH,WindSpeedGustMPH,Humidity,HourlyPrecipIn,Conditions,Clouds,dailyrainin,SoftwareType,DateUTC
2015-08-03 00:00:00,62.9,60.8,29.77,WNW,295,1.0,1.0,93,0.72,,,0.51,Wunderground v.1.15,2015-08-03 04:00:00,
2015-08-03 00:10:00,62.8,61.0,29.78,SSE,148,0.0,0.0,94,0.38,,,0.60,Wunderground v.1.15,2015-08-03 04:10:00,
2015-08-03 00:15:00,62.9,61.1,29.79,SSE,153,0.0,2.0,94,0.50,,,0.02,Wunderground v.1.15,2015-08-03 04:15:00,
2015-08-03 00:20:00,63.0,61.5,29.78,ESE,104,1.0,1.0,95,0.40,,,0.05,Wunderground v.1.15,2015-08-03 04:20:00,
2015-08-03 00:25:00,62.9,61.4,29.78,ESE,104,1.0,1.0,95,0.15,,,0.06,Wunderground v.1.15,2015-08-03 04:25:00,
2015-08-03 00:30:00,62.9,61.4,29.77,ESE,105,0.0,0.0,95,0.11,,,0.07,Wunderground v.1.15,2015-08-03 04:30:00,
2015-08-03 00:35:00,63.0,61.5,29.77,ESE,122,0.0,1.0,95,0.10,,,0.08,Wunderground v.1.15,2015-08-03 04:35:00,
2015-08-03 00:40:00,63.0,61.5,29.76,SE,125,1.0,1.0,95,0.14,,,0.09,Wunderground v.1.15,2015-08-03 04:40:00,
2015-08-03 00:50:00,63.0,61.5,29.75,SSE,152,1.0,1.0,95,0.09,,,0.10,Wunderground v.1.15,2015-08-03 04:50:00,
2015-08-03 00:55:00,63.0,61.8,29.75,SE,145,2.0,2.0,96,0.15,,,0.12,Wunderground v.1.15,2015-08-03 04:55:00,
2015-08-03 01:00:00,63.0,61.8,29.75,SE,142,2.0,2.0,96,0.25,,,0.14,Wunderground v.1.15,2015-08-03 05:00:00,
2015-08-03 01:05:00,63.0,61.8,29.74,SSE,158,3.0,3.0,96,0.18,,,0.15,Wunderground v.1.15,2015-08-03 05:05:00,
2015-08-03 01:10:00,62.8,61.6,29.75,SW,225,3.0,3.0,96,0.18,,,0.17,Wunderground v.1.15,2015-08-03 05:10:00,
2015-08-03 01:15:00,62.8,61.6,29.76,SE,139,3.0,3.0,96,0.10,,,0.18,Wunderground v.1.15,2015-08-03 05:15:00,
2015-08-03 01:25:00,62.7,61.5,29.74,SE,145,4.0,4.0,96,0.20,,,0.20,Wunderground v.1.15,2015-08-03 05:25:00,
2015-08-03 01:35:00,62.6,61.4,29.73,SSE,163,3.0,5.0,96,0.28,,,0.24,Wunderground v.1.15,2015-08-03 05:35:00,
2015-08-03 01:40:00,62.6,61.4,29.73,SW,232,3.0,6.0,96,0.21,,,0.26,Wunderground v.1.15,2015-08-03 05:40:00,
2015-08-03 01:45:00,62.6,61.4,29.72,SE,143,4.0,6.0,96,0.14,,,0.27,Wunderground v.1.15,2015-08-03 05:45:00,
2015-08-03 01:50:00,62.6,61.4,29.71,SE,127,5.0,5.0,96,0.13,,,0.28,Wunderground v.1.15,2015-08-03 05:50:00,
2015-08-03 02:00:00,62.4,61.2,29.68,ENE,74,6.0,9.0,96,0.24,,,0.32,Wunderground v.1.15,2015-08-03 06:00:00,
2015-08-03 02:10:00,62.4,61.2,29.67,SSE,155,5.0,5.0,96,0.17,,,0.35,Wunderground v.1.15,2015-08-03 06:10:00,
2015-08-03 02:15:00,62.4,61.2,29.65,SSW,203,6.0,6.0,96,0.15,,,0.36,Wunderground v.1.15,2015-08-03 06:15:00,
2015-08-03 02:20:00,62.3,61.1,29.62,South,190,7.0,7.0,96,0.19,,,0.38,Wunderground v.1.15,2015-08-03 06:20:00,
2015-08-03 02:25:00,62.2,61.0,29.62,WNW,287,8.0,8.0,96,0.10,,,0.38,Wunderground v.1.15,2015-08-03 06:25:00,
2015-08-03 02:35:00,62.3,61.1,29.67,North,1,6.0,7.0,96,0.04,,,0.38,Wunderground v.1.15,2015-08-03 06:35:00,
2015-08-03 02:40:00,62.4,61.2,29.67,SW,224,5.0,5.0,96,0.00,,,0.38,Wunderground v.1.15,2015-08-03 06:40:00,
2015-08-03 02:45:00,62.4,61.2,29.69,ENE,75,4.0,8.0,96,0.00,,,0.38,Wunderground v.1.15,2015-08-03 06:45:00,
2015-08-03 02:55:00,62.5,61.3,29.71,SW,222,3.0,4.0,96,0.00,,,0.38,Wunderground v.1.15,2015-08-03 06:55:00,
2015-08-03 03:00:00,62.6,61.4,29.73,WSW,255,1.0,3.0,96,0.00,,,0.38,Wunderground v.1.15,2015-08-03 07:00:00,
2015-08-03 03:05:00,62.6,61.4,29.73,SSE,164,1.0,3.0,96,0.00,,,0.38,Wunderground v.1.15,2015-08-03 07:05:00,
2015-08-03 03:10:00,62.7,61.5,29.72,SE,127,1.0,1.0,96,0.00,,,0.39,Wunderground v.1.15,2015-08-03 07:10:00,
2015-08-03 03:15:00,62.7,61.5,29.72,SSW,205,1.0,4.0,96,0.00,,,0.39,Wunderground v.1.15,2015-08-03 07:15:00,
2015-08-03 03:20:00,62.7,61.5,29.70,WSW,238,2.0,2.0,96,0.00,,,0.39,Wunderground v.1.15,2015-08-03 07:20:00,
2015-08-03 03:25:00,62.6,61.4,29.71,WSW,244,2.0,2.0,96,0.00,,,0.39,Wunderground v.1.15,2015-08-03 07:25:00,
2015-08-03 03:35:00,62.7,61.5,29.72,SSW,201,2.0,2.0,96,0.00,,,0.39,Wunderground v.1.15,2015-08-03 07:35:00,
2015-08-03 03:45:00,62.7,61.5,29.73,SE,126,2.0,2.0,96,0.00,,,0.39,Wunderground v.1.15,2015-08-03 07:45:00,
2015-08-03 03:50:00,62.7,61.5,29.72,WSW,238,2.0,2.0,96,0.00,,,0.39,Wunderground v.1.15,2015-08-03 07:50:00,
2015-08-03 03:55:00,62.7,61.5,29.72,WSW,257,2.0,2.0,96,0.00,,,0.39,Wunderground v.1.15,2015-08-03 07:55:00,
2015-08-03 04:00:00,62.8,61.6,29.71,SSE,165,2.0,2.0,96,0.00,,,0.39,Wunderground v.1.15,2015-08-03 08:00:00,
2015-08-03 04:10:00,62.8,61.6,29.72,SSW,194,2.0,2.0,96,0.00,,,0.39,Wunderground v.1.15,2015-08-03 08:10:00,
2015-08-03 04:20:00,62.8,61.6,29.72,ESE,121,2.0,2.0,96,0.00,,,0.39,Wunderground v.1.15,2015-08-03 08:20:00,
2015-08-03 04:25:00,62.9,61.7,29.73,SW,215,2.0,3.0,96,0.00,,,0.39,Wunderground v.1.15,2015-08-03 08:25:00,
2015-08-03 04:30:00,63.0,62.1,29.74,South,181,2.0,2.0,97,0.00,,,0.39,Wunderground v.1.15,2015-08-03 08:30:00,
2015-08-03 04:35:00,63.0,61.8,29.74,WSW,248,2.0,2.0,96,0.00,,,0.39,Wunderground v.1.15,2015-08-03 08:35:00,
2015-08-03 04:40:00,63.1,61.9,29.74,ESE,114,2.0,2.0,96,0.00,,,0.39,Wunderground v.1.15,2015-08-03 08:40:00,
2015-08-03 04:45:00,63.1,61.9,29.74,West,262,2.0,3.0,96,0.00,,,0.39,Wunderground v.1.15,2015-08-03 08:45:00,
2015-08-03 04:50:00,63.1,61.9,29.73,ESE,104,3.0,3.0,96,0.00,,,0.39,Wunderground v.1.15,2015-08-03 08:50:00,
2015-08-03 05:00:00,63.0,61.8,29.73,ENE,68,3.0,3.0,96,0.00,,,0.39,Wunderground v.1.15,2015-08-03 09:00:00,
2015-08-03 05:05:00,63.0,61.8,29.73,WSW,257,2.0,6.0,96,0.00,,,0.39,Wunderground v.1.15,2015-08-03 09:05:00,
2015-08-03 05:10:00,63.0,61.8,29.73,ESE,106,2.0,4.0,96,0.00,,,0.39,Wunderground v.1.15,2015-08-03 09:10:00,
2015-08-03 05:15:00,63.0,61.8,29.73,WSW,245,3.0,4.0,96,0.00,,,0.39,Wunderground v.1.15,2015-08-03 09:15:00,
2015-08-03 05:25:00,63.0,61.8,29.73,South,191,2.0,3.0,96,0.00,,,0.39,Wunderground v.1.15,2015-08-03 09:25:00,
2015-08-03 05:30:00,63.0,61.8,29.73,SSW,204,2.0,3.0,96,0.00,,,0.39,Wunderground v.1.15,2015-08-03 09:30:00,
2015-08-03 05:40:00,63.0,61.8,29.73,WSW,250,2.0,2.0,96,0.00,,,0.39,Wunderground v.1.15,2015-08-03 09:40:00,
2015-08-03 05:45:00,63.0,61.8,29.73,SSW,210,3.0,3.0,96,0.00,,,0.39,Wunderground v.1.15,2015-08-03 09:45:00,
2015-08-03 05:50:00,63.0,61.8,29.74,SE,133,3.0,3.0,96,0.00,,,0.39,Wunderground v.1.15,2015-08-03 09:50:00,
2015-08-03 06:00:00,63.0,61.8,29.74,SSE,152,3.0,3.0,96,0.00,,,0.39,Wunderground v.1.15,2015-08-03 10:00:00,
2015-08-03 06:05:00,63.0,61.8,29.74,WSW,240,2.0,3.0,96,0.00,,,0.39,Wunderground v.1.15,2015-08-03 10:05:00,
2015-08-03 06:15:00,62.5,61.3,29.75,SSW,211,2.0,3.0,96,0.00,,,0.39,Wunderground v.1.15,2015-08-03 10:15:00,
2015-08-03 06:20:00,62.5,62.5,29.75,WNW,284,4.0,4.0,100,0.00,,,0.39,Wunderground v.1.15,2015-08-03 10:20:00,
2015-08-03 06:25:00,62.5,62.5,29.75,WNW,284,4.0,4.0,100,0.00,,,0.39,Wunderground v.1.15,2015-08-03 10:25:00,
2015-08-03 06:30:00,-999.9,-99.9,29.75,North,32767,-999.9,0.0,255,-99.99,,,0.39,Wunderground v.1.15,2015-08-03 10:30:00,
2015-08-03 06:35:00,-999.9,-99.9,29.74,North,32767,-999.9,0.0,255,-99.99,,,0.39,Wunderground v.1.15,2015-08-03 10:35:00,
2015-08-03 06:40:00,-999.9,-99.9,29.74,North,32767,-999.9,0.0,255,-99.99,,,0.39,Wunderground v.1.15,2015-08-03 10:40:00,
2015-08-03 06:45:00,-999.9,-99.9,29.74,North,32767,-999.9,0.0,255,-99.99,,,0.39,Wunderground v.1.15,2015-08-03 10:45:00,
2015-08-03 06:50:00,-999.9,-99.9,29.74,North,32767,-999.9,0.0,255,-99.99,,,0.39,Wunderground v.1.15,2015-08-03 10:50:00,
2015-08-03 07:00:00,-999.9,-99.9,29.74,North,32767,-999.9,0.0,255,-99.99,,,0.39,Wunderground v.1.15,2015-08-03 11:00:00,
2015-08-03 07:05:00,-999.9,-99.9,29.74,North,32767,-999.9,0.0,255,-99.99,,,0.39,Wunderground v.1.15,2015-08-03 11:05:00,
2015-08-03 07:10:00,-999.9,-99.9,29.75,North,32767,-999.9,0.0,255,-99.99,,,0.39,Wunderground v.1.15,2015-08-03 11:10:00,
2015-08-03 07:15:00,-999.9,-99.9,29.75,North,32767,-999.9,0.0,255,-99.99,,,0.39,Wunderground v.1.15,2015-08-03 11:15:00,
2015-08-03 07:20:00,-999.9,-99.9,29.75,North,32767,-999.9,0.0,255,-99.99,,,0.39,Wunderground v.1.15,2015-08-03 11:20:00,
2015-08-03 07:25:00,-999.9,-99.9,29.75,North,32767,-999.9,0.0,255,-99.99,,,0.39,Wunderground v.1.15,2015-08-03 11:25:00,
2015-08-03 07:30:00,-999.9,-99.9,29.76,North,32767,-999.9,0.0,255,-99.99,,,0.39,Wunderground v.1.15,2015-08-03 11:30:00,
2015-08-03 07:40:00,63.3,62.1,29.76,West,260,0.0,0.0,96,0.00,,,0.39,Wunderground v.1.15,2015-08-03 11:40:00,
2015-08-03 07:45:00,63.3,62.1,29.76,SE,136,2.0,2.0,96,0.00,,,0.39,Wunderground v.1.15,2015-08-03 11:45:00,
2015-08-03 07:50:00,63.3,62.1,29.76,WSW,257,2.0,2.0,96,0.00,,,0.39,Wunderground v.1.15,2015-08-03 11:50:00,
2015-08-03 07:55:00,63.4,62.2,29.76,WNW,295,2.0,2.0,96,0.00,,,0.39,Wunderground v.1.15,2015-08-03 11:55:00,
2015-08-03 08:00:00,63.5,62.3,29.76,WSW,255,3.0,3.0,96,0.00,,,0.39,Wunderground v.1.15,2015-08-03 12:00:00,
2015-08-03 08:10:00,63.8,62.6,29.76,SE,136,1.0,2.0,96,0.00,,,0.39,Wunderground v.1.15,2015-08-03 12:10:00,
2015-08-03 08:15:00,64.1,62.9,29.76,SW,222,1.0,5.0,96,0.00,,,0.39,Wunderground v.1.15,2015-08-03 12:15:00,
2015-08-03 08:20:00,64.2,62.7,29.76,ENE,57,2.0,2.0,95,0.00,,,0.39,Wunderground v.1.15,2015-08-03 12:20:00,
2015-08-03 08:25:00,64.5,63.0,29.76,SW,236,2.0,2.0,95,0.00,,,0.39,Wunderground v.1.15,2015-08-03 12:25:00,
2015-08-03 08:30:00,64.8,63.3,29.76,WSW,245,1.0,1.0,95,0.00,,,0.39,Wunderground v.1.15,2015-08-03 12:30:00,
2015-08-03 08:35:00,65.2,63.4,29.76,WNW,288,1.0,1.0,94,0.00,,,0.39,Wunderground v.1.15,2015-08-03 12:35:00,
2015-08-03 08:40:00,65.9,63.8,29.76,NE,40,1.0,1.0,93,0.00,,,0.39,Wunderground v.1.15,2015-08-03 12:40:00,
2015-08-03 08:45:00,66.3,63.9,29.76,West,259,1.0,1.0,92,0.00,,,0.39,Wunderground v.1.15,2015-08-03 12:45:00,
2015-08-03 08:50:00,66.7,64.0,29.76,West,259,2.0,2.0,91,0.00,,,0.39,Wunderground v.1.15,2015-08-03 12:50:00,
2015-08-03 08:55:00,67.1,64.1,29.76,WNW,283,2.0,3.0,90,0.00,,,0.39,Wunderground v.1.15,2015-08-03 12:55:00,
2015-08-03 09:05:00,68.2,64.5,29.76,SW,228,2.0,4.0,88,0.00,,,0.39,Wunderground v.1.15,2015-08-03 13:05:00,
2015-08-03 09:10:00,68.6,64.6,29.76,SSW,211,2.0,2.0,87,0.00,,,0.39,Wunderground v.1.15,2015-08-03 13:10:00,
2015-08-03 09:15:00,68.8,64.8,29.76,SE,128,2.0,2.0,87,0.00,,,0.39,Wunderground v.1.15,2015-08-03 13:15:00,
2015-08-03 09:20:00,69.1,64.7,29.76,WSW,250,2.0,3.0,86,0.00,,,0.39,Wunderground v.1.15,2015-08-03 13:20:00,
2015-08-03 09:25:00,69.2,64.5,29.76,SW,229,3.0,3.0,85,0.00,,,0.39,Wunderground v.1.15,2015-08-03 13:25:00,
2015-08-03 09:30:00,69.3,64.6,29.76,West,280,3.0,3.0,85,0.00,,,0.39,Wunderground v.1.15,2015-08-03 13:30:00,
2015-08-03 09:40:00,69.8,64.4,29.76,WSW,240,2.0,3.0,83,0.00,,,0.39,Wunderground v.1.15,2015-08-03 13:40:00,
2015-08-03 09:45:00,70.0,64.9,29.76,West,274,3.0,3.0,84,0.00,,,0.39,Wunderground v.1.15,2015-08-03 13:45:00,
2015-08-03 09:50:00,70.2,64.4,29.76,South,181,2.0,3.0,82,0.00,,,0.39,Wunderground v.1.15,2015-08-03 13:50:00,
2015-08-03 09:55:00,70.6,64.8,29.76,West,278,2.0,3.0,82,0.00,,,0.39,Wunderground v.1.15,2015-08-03 13:55:00,
2015-08-03 10:00:00,71.3,65.5,29.76,West,270,2.0,2.0,82,0.00,,,0.39,Wunderground v.1.15,2015-08-03 14:00:00,
2015-08-03 10:05:00,71.2,64.7,29.76,East,95,2.0,2.0,80,0.00,,,0.39,Wunderground v.1.15,2015-08-03 14:05:00,
2015-08-03 10:10:00,71.7,65.2,29.76,WSW,250,2.0,2.0,80,0.00,,,0.39,Wunderground v.1.15,2015-08-03 14:10:00,
2015-08-03 10:20:00,72.7,65.4,29.76,WSW,249,2.0,2.0,78,0.00,,,0.39,Wunderground v.1.15,2015-08-03 14:20:00,
2015-08-03 10:25:00,72.9,64.9,29.76,WSW,245,2.0,3.0,76,0.00,,,0.39,Wunderground v.1.15,2015-08-03 14:25:00,
2015-08-03 10:30:00,73.3,65.7,29.76,NNW,330,2.0,2.0,77,0.00,,,0.39,Wunderground v.1.15,2015-08-03 14:30:00,
2015-08-03 10:35:00,73.5,65.1,29.76,ESE,103,2.0,2.0,75,0.00,,,0.39,Wunderground v.1.15,2015-08-03 14:35:00,
2015-08-03 10:40:00,73.4,65.4,29.76,WNW,289,2.0,2.0,76,0.00,,,0.39,Wunderground v.1.15,2015-08-03 14:40:00,
2015-08-03 10:45:00,73.6,65.6,29.76,SW,229,2.0,2.0,76,0.00,,,0.39,Wunderground v.1.15,2015-08-03 14:45:00,
2015-08-03 10:50:00,73.7,65.3,29.76,North,11,2.0,4.0,75,0.00,,,0.39,Wunderground v.1.15,2015-08-03 14:50:00,
2015-08-03 10:55:00,73.4,65.4,29.76,South,176,2.0,4.0,76,0.00,,,0.39,Wunderground v.1.15,2015-08-03 14:55:00,
2015-08-03 11:05:00,73.7,65.3,29.76,NNW,346,3.0,3.0,75,0.00,,,0.39,Wunderground v.1.15,2015-08-03 15:05:00,
2015-08-03 11:10:00,74.6,66.1,29.76,ESE,107,2.0,2.0,75,0.00,,,0.39,Wunderground v.1.15,2015-08-03 15:10:00,
2015-08-03 11:15:00,75.1,65.9,29.76,West,259,2.0,2.0,73,0.00,,,0.39,Wunderground v.1.15,2015-08-03 15:15:00,
2015-08-03 11:20:00,75.1,65.9,29.76,North,352,2.0,2.0,73,0.00,,,0.39,Wunderground v.1.15,2015-08-03 15:20:00,
2015-08-03 11:25:00,75.5,64.6,29.77,NNW,330,2.0,4.0,69,0.00,,,0.39,Wunderground v.1.15,2015-08-03 15:25:00,
2015-08-03 11:30:00,75.6,65.1,29.77,SW,224,2.0,5.0,70,0.00,,,0.39,Wunderground v.1.15,2015-08-03 15:30:00,
2015-08-03 11:40:00,75.6,65.5,29.77,WNW,285,2.0,2.0,71,0.00,,,0.39,Wunderground v.1.15,2015-08-03 15:40:00,
2015-08-03 11:50:00,75.1,64.2,29.77,East,101,2.0,2.0,69,0.00,,,0.39,Wunderground v.1.15,2015-08-03 15:50:00,
2015-08-03 11:55:00,75.0,65.4,29.77,North,4,2.0,3.0,72,0.00,,,0.39,Wunderground v.1.15,2015-08-03 15:55:00,
2015-08-03 12:00:00,75.8,65.3,29.77,North,356,2.0,2.0,70,0.00,,,0.39,Wunderground v.1.15,2015-08-03 16:00:00,
2015-08-03 12:05:00,76.2,64.9,29.77,SSE,166,2.0,3.0,68,0.00,,,0.39,Wunderground v.1.15,2015-08-03 16:05:00,
2015-08-03 12:10:00,75.9,64.2,29.77,SE,136,3.0,3.0,67,0.00,,,0.39,Wunderground v.1.15,2015-08-03 16:10:00,
2015-08-03 12:20:00,76.1,64.8,29.77,West,275,2.0,2.0,68,0.00,,,0.39,Wunderground v.1.15,2015-08-03 16:20:00,
2015-08-03 12:25:00,77.0,64.3,29.77,WSW,253,2.0,2.0,65,0.00,,,0.39,Wunderground v.1.15,2015-08-03 16:25:00,
2015-08-03 12:30:00,77.1,64.0,29.77,West,275,2.0,2.0,64,0.00,,,0.39,Wunderground v.1.15,2015-08-03 16:30:00,
2015-08-03 12:35:00,77.1,65.3,29.77,SSW,192,2.0,2.0,67,0.00,,,0.39,Wunderground v.1.15,2015-08-03 16:35:00,
2015-08-03 12:40:00,78.0,65.3,29.77,SW,233,2.0,2.0,65,0.00,,,0.39,Wunderground v.1.15,2015-08-03 16:40:00,
2015-08-03 12:45:00,79.0,64.9,29.77,NW,314,1.0,2.0,62,0.00,,,0.39,Wunderground v.1.15,2015-08-03 16:45:00,
2015-08-03 12:55:00,78.3,64.2,29.77,SSE,161,2.0,2.0,62,0.00,,,0.39,Wunderground v.1.15,2015-08-03 16:55:00,
2015-08-03 13:00:00,78.3,63.7,29.77,NNW,330,2.0,4.0,61,0.00,,,0.39,Wunderground v.1.15,2015-08-03 17:00:00,
2015-08-03 13:10:00,78.3,66.0,29.77,West,267,2.0,2.0,66,0.00,,,0.39,Wunderground v.1.15,2015-08-03 17:10:00,
2015-08-03 13:15:00,78.2,64.6,29.77,NNE,22,1.0,3.0,63,0.00,,,0.39,Wunderground v.1.15,2015-08-03 17:15:00,
2015-08-03 13:20:00,77.6,63.5,29.77,West,274,2.0,2.0,62,0.00,,,0.39,Wunderground v.1.15,2015-08-03 17:20:00,
2015-08-03 13:30:00,77.5,65.2,29.77,SSE,168,2.0,2.0,66,0.00,,,0.39,Wunderground v.1.15,2015-08-03 17:30:00,
2015-08-03 13:35:00,78.0,64.4,29.76,West,262,2.0,3.0,63,0.00,,,0.39,Wunderground v.1.15,2015-08-03 17:35:00,
2015-08-03 13:40:00,78.9,64.8,29.76,WNW,302,2.0,2.0,62,0.00,,,0.39,Wunderground v.1.15,2015-08-03 17:40:00,
2015-08-03 13:45:00,79.8,64.2,29.76,NW,308,2.0,2.0,59,0.00,,,0.39,Wunderground v.1.15,2015-08-03 17:45:00,
2015-08-03 13:50:00,79.6,65.4,29.76,West,277,2.0,4.0,62,0.00,,,0.39,Wunderground v.1.15,2015-08-03 17:50:00,
2015-08-03 14:00:00,80.4,62.8,29.76,NW,326,3.0,3.0,55,0.00,,,0.39,Wunderground v.1.15,2015-08-03 18:00:00,
2015-08-03 14:10:00,80.3,62.1,29.75,North,352,2.0,3.0,54,0.00,,,0.39,Wunderground v.1.15,2015-08-03 18:10:00,
2015-08-03 14:15:00,80.8,64.1,29.75,WNW,291,2.0,3.0,57,0.00,,,0.39,Wunderground v.1.15,2015-08-03 18:15:00,
2015-08-03 14:20:00,81.2,64.0,29.75,North,352,2.0,2.0,56,0.00,,,0.39,Wunderground v.1.15,2015-08-03 18:20:00,
2015-08-03 14:25:00,81.1,61.3,29.75,NW,314,3.0,3.0,51,0.00,,,0.39,Wunderground v.1.15,2015-08-03 18:25:00,
2015-08-03 14:30:00,80.9,61.6,29.75,West,273,4.0,4.0,52,0.00,,,0.39,Wunderground v.1.15,2015-08-03 18:30:00,
2015-08-03 14:35:00,80.6,60.8,29.75,North,354,4.0,5.0,51,0.00,,,0.39,Wunderground v.1.15,2015-08-03 18:35:00,
2015-08-03 14:45:00,80.9,62.7,29.75,SW,235,2.0,3.0,54,0.00,,,0.39,Wunderground v.1.15,2015-08-03 18:45:00,
2015-08-03 14:50:00,81.6,62.8,29.75,NNW,343,2.0,6.0,53,0.00,,,0.39,Wunderground v.1.15,2015-08-03 18:50:00,
2015-08-03 14:55:00,82.0,62.1,29.75,WSW,250,3.0,6.0,51,0.00,,,0.39,Wunderground v.1.15,2015-08-03 18:55:00,
2015-08-03 15:00:00,81.3,61.4,29.75,WSW,239,3.0,5.0,51,0.00,,,0.39,Wunderground v.1.15,2015-08-03 19:00:00,
2015-08-03 15:05:00,81.0,62.3,29.75,NNW,329,2.0,5.0,53,0.00,,,0.39,Wunderground v.1.15,2015-08-03 19:05:00,
2015-08-03 15:10:00,81.1,62.9,29.75,WNW,298,2.0,2.0,54,0.00,,,0.39,Wunderground v.1.15,2015-08-03 19:10:00,
2015-08-03 15:20:00,81.8,60.2,29.75,West,266,3.0,5.0,48,0.00,,,0.39,Wunderground v.1.15,2015-08-03 19:20:00,
2015-08-03 15:25:00,82.3,62.9,29.75,ESE,119,3.0,5.0,52,0.00,,,0.39,Wunderground v.1.15,2015-08-03 19:25:00,
2015-08-03 15:30:00,82.8,63.4,29.75,South,169,3.0,4.0,52,0.00,,,0.39,Wunderground v.1.15,2015-08-03 19:30:00,
2015-08-03 15:35:00,82.7,61.0,29.75,West,281,3.0,4.0,48,0.00,,,0.39,Wunderground v.1.15,2015-08-03 19:35:00,
2015-08-03 15:40:00,82.2,60.6,29.75,South,188,3.0,3.0,48,0.00,,,0.39,Wunderground v.1.15,2015-08-03 19:40:00,
2015-08-03 15:45:00,82.3,61.2,29.75,NW,308,3.0,3.0,49,0.00,,,0.39,Wunderground v.1.15,2015-08-03 19:45:00,
2015-08-03 15:50:00,82.4,60.7,29.75,West,279,3.0,3.0,48,0.00,,,0.39,Wunderground v.1.15,2015-08-03 19:50:00,
2015-08-03 15:55:00,82.1,61.0,29.75,ESE,109,3.0,4.0,49,0.00,,,0.39,Wunderground v.1.15,2015-08-03 19:55:00,
2015-08-03 16:05:00,82.2,59.4,29.75,NW,323,4.0,4.0,46,0.00,,,0.39,Wunderground v.1.15,2015-08-03 20:05:00,
2015-08-03 16:10:00,81.8,59.0,29.75,NNW,340,4.0,4.0,46,0.00,,,0.39,Wunderground v.1.15,2015-08-03 20:10:00,
2015-08-03 16:15:00,82.2,59.4,29.75,SW,222,3.0,4.0,46,0.00,,,0.39,Wunderground v.1.15,2015-08-03 20:15:00,
2015-08-03 16:20:00,81.8,61.9,29.75,NE,40,2.0,3.0,51,0.00,,,0.39,Wunderground v.1.15,2015-08-03 20:20:00,
2015-08-03 16:25:00,81.6,61.7,29.75,NNE,26,3.0,3.0,51,0.00,,,0.39,Wunderground v.1.15,2015-08-03 20:25:00,
2015-08-03 16:30:00,80.5,62.3,29.75,North,358,2.0,4.0,54,0.00,,,0.39,Wunderground v.1.15,2015-08-03 20:30:00,
2015-08-03 16:35:00,79.2,62.7,29.75,NNW,331,3.0,6.0,57,0.00,,,0.39,Wunderground v.1.15,2015-08-03 20:35:00,
2015-08-03 16:45:00,79.3,62.2,29.75,NE,34,3.0,4.0,56,0.00,,,0.39,Wunderground v.1.15,2015-08-03 20:45:00,
2015-08-03 16:50:00,79.6,63.5,29.75,NE,44,3.0,7.0,58,0.00,,,0.39,Wunderground v.1.15,2015-08-03 20:50:00,
2015-08-03 16:55:00,79.5,62.9,29.75,SW,224,2.0,7.0,57,0.00,,,0.39,Wunderground v.1.15,2015-08-03 20:55:00,
2015-08-03 17:00:00,79.6,63.0,29.75,NNW,330,1.0,1.0,57,0.00,,,0.39,Wunderground v.1.15,2015-08-03 21:00:00,
2015-08-03 17:05:00,79.0,60.9,29.75,WSW,242,1.0,1.0,54,0.00,,,0.39,Wunderground v.1.15,2015-08-03 21:05:00,
2015-08-03 17:10:00,79.2,62.1,29.75,NW,319,2.0,3.0,56,0.00,,,0.39,Wunderground v.1.15,2015-08-03 21:10:00,
2015-08-03 17:20:00,79.2,62.1,29.75,West,281,2.0,2.0,56,0.00,,,0.39,Wunderground v.1.15,2015-08-03 21:20:00,
2015-08-03 17:25:00,78.2,63.2,29.75,SW,235,3.0,3.0,60,0.00,,,0.39,Wunderground v.1.15,2015-08-03 21:25:00,
2015-08-03 17:30:00,77.9,63.4,29.75,WNW,296,3.0,5.0,61,0.00,,,0.39,Wunderground v.1.15,2015-08-03 21:30:00,
2015-08-03 17:35:00,77.9,62.9,29.75,North,358,2.0,5.0,60,0.00,,,0.39,Wunderground v.1.15,2015-08-03 21:35:00,
2015-08-03 17:40:00,78.4,64.3,29.75,NW,304,2.0,3.0,62,0.00,,,0.39,Wunderground v.1.15,2015-08-03 21:40:00,
2015-08-03 17:45:00,78.3,61.8,29.75,West,268,3.0,3.0,57,0.00,,,0.39,Wunderground v.1.15,2015-08-03 21:45:00,
2015-08-03 17:50:00,77.8,61.8,29.75,NW,321,3.0,5.0,58,0.00,,,0.39,Wunderground v.1.15,2015-08-03 21:50:00,
2015-08-03 18:00:00,78.2,61.7,29.76,NNW,345,4.0,4.0,57,0.00,,,0.39,Wunderground v.1.15,2015-08-03 22:00:00,
2015-08-03 18:05:00,78.3,61.3,29.76,NNE,15,3.0,4.0,56,0.00,,,0.39,Wunderground v.1.15,2015-08-03 22:05:00,
2015-08-03 18:10:00,78.4,61.4,29.76,NNW,348,3.0,3.0,56,0.00,,,0.39,Wunderground v.1.15,2015-08-03 22:10:00,
2015-08-03 18:15:00,78.8,61.3,29.76,WNW,290,2.0,3.0,55,0.00,,,0.39,Wunderground v.1.15,2015-08-03 22:15:00,
2015-08-03 18:20:00,78.2,60.7,29.76,NNW,333,2.0,2.0,55,0.00,,,0.39,Wunderground v.1.15,2015-08-03 22:20:00,
2015-08-03 18:25:00,78.1,61.1,29.76,WSW,248,1.0,2.0,56,0.00,,,0.39,Wunderground v.1.15,2015-08-03 22:25:00,
2015-08-03 18:30:00,77.8,61.3,29.77,NNE,12,1.0,1.0,57,0.00,,,0.39,Wunderground v.1.15,2015-08-03 22:30:00,
2015-08-03 18:40:00,77.1,61.2,29.77,North,4,0.0,1.0,58,0.00,,,0.39,Wunderground v.1.15,2015-08-03 22:40:00,
2015-08-03 18:45:00,77.3,59.4,29.77,NNW,348,1.0,11.0,54,0.00,,,0.39,Wunderground v.1.15,2015-08-03 22:45:00,
2015-08-03 18:50:00,76.9,59.5,29.77,WNW,300,3.0,3.0,55,0.00,,,0.39,Wunderground v.1.15,2015-08-03 22:50:00,
2015-08-03 18:55:00,76.7,58.8,29.77,WNW,296,3.0,3.0,54,0.00,,,0.39,Wunderground v.1.15,2015-08-03 22:55:00,
2015-08-03 19:00:00,76.7,57.7,29.77,WNW,287,2.0,2.0,52,0.00,,,0.39,Wunderground v.1.15,2015-08-03 23:00:00,
2015-08-03 19:05:00,76.6,58.7,29.77,SW,222,2.0,3.0,54,0.00,,,0.39,Wunderground v.1.15,2015-08-03 23:05:00,
2015-08-03 19:15:00,75.7,54.6,29.78,NNW,343,3.0,4.0,48,0.00,,,0.39,Wunderground v.1.15,2015-08-03 23:15:00,
2015-08-03 19:25:00,75.0,55.1,29.78,SW,232,3.0,4.0,50,0.00,,,0.39,Wunderground v.1.15,2015-08-03 23:25:00,
2015-08-03 19:30:00,74.8,54.9,29.78,North,6,2.0,2.0,50,0.00,,,0.39,Wunderground v.1.15,2015-08-03 23:30:00,
2015-08-03 19:35:00,74.5,54.6,29.78,ESE,113,2.0,2.0,50,0.00,,,0.39,Wunderground v.1.15,2015-08-03 23:35:00,
2015-08-03 19:40:00,74.3,55.0,29.78,SW,229,2.0,2.0,51,0.00,,,0.39,Wunderground v.1.15,2015-08-03 23:40:00,
2015-08-03 19:45:00,74.1,54.3,29.79,NNW,330,2.0,2.0,50,0.00,,,0.39,Wunderground v.1.15,2015-08-03 23:45:00,
2015-08-03 19:50:00,73.8,54.0,29.79,SW,233,1.0,2.0,50,0.00,,,0.39,Wunderground v.1.15,2015-08-03 23:50:00,
2015-08-03 19:55:00,73.6,53.8,29.79,WNW,291,1.0,2.0,50,0.00,,,0.39,Wunderground v.1.15,2015-08-03 23:55:00,
2015-08-03 20:00:00,73.4,54.2,29.80,WSW,252,2.0,2.0,51,0.00,,,0.39,Wunderground v.1.15,2015-08-04 00:00:00,
2015-08-03 20:10:00,72.9,53.7,29.80,SSW,212,1.0,1.0,51,0.00,,,0.39,Wunderground v.1.15,2015-08-04 00:10:00,
2015-08-03 20:15:00,72.7,52.4,29.80,WNW,291,2.0,2.0,49,0.00,,,0.39,Wunderground v.1.15,2015-08-04 00:15:00,
2015-08-03 20:20:00,72.5,53.3,29.80,East,95,2.0,2.0,51,0.00,,,0.39,Wunderground v.1.15,2015-08-04 00:20:00,
2015-08-03 20:25:00,72.2,53.1,29.80,South,186,1.0,2.0,51,0.00,,,0.39,Wunderground v.1.15,2015-08-04 00:25:00,
2015-08-03 20:30:00,71.8,53.7,29.81,WNW,297,0.0,0.0,53,0.00,,,0.39,Wunderground v.1.15,2015-08-04 00:30:00,
2015-08-03 20:35:00,71.2,53.7,29.80,SE,141,0.0,1.0,54,0.00,,,0.39,Wunderground v.1.15,2015-08-04 00:35:00,
2015-08-03 20:45:00,70.5,53.6,29.81,SSW,203,1.0,1.0,55,0.00,,,0.39,Wunderground v.1.15,2015-08-04 00:45:00,